QTR3152 OTHH-EGLL

Flight info

Callsign QTR3152
Flight time N/A
Altitude 32000
Route ULIKA M430 KSA M321 IVONU Z710 GAS G662 NIMAR L550 NOVPA J981 DATOK T115 PSD/N0489F340 T115 DARUR Q777 RASDA DCT OTHON DCT VAXOS UN128 RDS UL609 MES DCT FSK DCT DISOR DCT LONTA UL608 DOLEV DCT IRDIV DCT PODET DCT SIMBA DCT GASKA DCT MAPOX DCT OTMEC DCT ABNED L980 LOGAN
Aircraft B77W/H-SDE1E2E3FGHIJ2J3J4J5M1RWXY/LB1D1

Departure

Time 2026-05-05 17:16
Airport Hamad International Airport (OTHH)

Arrival

Time N/A
Airport London Heathrow Airport (EGLL)
Time Latitude Longitude Altitude Speed Heading
2026-05-05 17:04 25.25662 51.59854 27 ft 0 kts 249°
2026-05-05 17:09 25.25666 51.59865 26 ft 2 kts 245°
2026-05-05 17:09 25.25673 51.59882 27 ft 2 kts 244°
2026-05-05 17:09 25.25681 51.59898 27 ft 2 kts 238°
2026-05-05 17:09 25.25690 51.59913 25 ft 2 kts 228°
2026-05-05 17:10 25.25703 51.59925 26 ft 2 kts 203°
2026-05-05 17:10 25.25719 51.59928 24 ft 2 kts 166°
2026-05-05 17:10 25.25726 51.59926 25 ft 0 kts 159°
2026-05-05 17:11 25.25721 51.59928 24 ft 5 kts 159°
2026-05-05 17:12 25.25660 51.59955 27 ft 10 kts 158°
2026-05-05 17:12 25.25606 51.59990 27 ft 9 kts 123°
2026-05-05 17:12 25.25609 51.60056 27 ft 9 kts 94°
2026-05-05 17:12 25.25567 51.60104 26 ft 9 kts 153°
2026-05-05 17:13 25.25521 51.60148 26 ft 9 kts 116°
2026-05-05 17:13 25.25516 51.60218 30 ft 9 kts 93°
2026-05-05 17:13 25.25516 51.60288 29 ft 9 kts 84°
2026-05-05 17:13 25.25535 51.60355 27 ft 9 kts 71°
2026-05-05 17:14 25.25557 51.60428 26 ft 11 kts 68°
2026-05-05 17:14 25.25601 51.60497 21 ft 11 kts 40°
2026-05-05 17:14 25.25675 51.60492 20 ft 11 kts 338°
2026-05-05 17:14 25.25694 51.60484 20 ft 0 kts 338°
2026-05-05 17:15 25.25731 51.60468 24 ft 24 kts 338°
2026-05-05 17:15 25.26116 51.60298 26 ft 94 kts 338°
2026-05-05 17:15 25.26926 51.59941 19 ft 155 kts 338°
2026-05-05 17:16 25.28075 51.59430 86 ft 194 kts 338°
2026-05-05 17:16 25.29355 51.58866 470 ft 204 kts 340°
2026-05-05 17:16 25.30737 51.58261 782 ft 221 kts 339°
2026-05-05 17:16 25.32197 51.57618 1199 ft 231 kts 339°
2026-05-05 17:17 25.33742 51.56934 1609 ft 246 kts 339°
2026-05-05 17:17 25.35337 51.56225 2082 ft 254 kts 339°
2026-05-05 17:17 25.36989 51.55490 2540 ft 257 kts 339°
2026-05-05 17:17 25.38652 51.54750 2997 ft 258 kts 339°
2026-05-05 17:18 25.40325 51.54005 3428 ft 259 kts 339°
2026-05-05 17:18 25.41998 51.53259 3872 ft 260 kts 339°
2026-05-05 17:18 25.43680 51.52513 4307 ft 261 kts 339°
2026-05-05 17:18 25.45365 51.51765 4732 ft 261 kts 338°
2026-05-05 17:19 25.46844 51.50646 5239 ft 264 kts 309°
2026-05-05 17:19 25.47580 51.48799 5832 ft 272 kts 282°
2026-05-05 17:19 25.47603 51.46696 6465 ft 278 kts 263°
2026-05-05 17:19 25.46326 51.41336 8015 ft 287 kts 257°
2026-05-05 17:20 25.41765 51.24049 12720 ft 305 kts 256°
2026-05-05 17:20 25.36747 51.04614 16688 ft 354 kts 255°
2026-05-05 17:20 25.30773 50.81778 19455 ft 424 kts 254°
2026-05-05 17:20 25.25816 50.56124 20346 ft 444 kts 272°
2026-05-05 17:21 25.26585 50.28715 24263 ft 447 kts 270°
2026-05-05 17:21 25.27062 50.01570 27475 ft 449 kts 270°
2026-05-05 17:21 25.27527 49.73746 29874 ft 458 kts 270°
2026-05-05 17:22 25.26572 49.32984 31575 ft 450 kts 262°
2026-05-05 17:22 25.23980 49.05473 31907 ft 454 kts 262°
2026-05-05 17:22 25.21385 48.77460 31884 ft 459 kts 262°
2026-05-05 17:22 25.18743 48.49659 31737 ft 450 kts 262°
2026-05-05 17:23 25.16067 48.22583 31705 ft 438 kts 262°
2026-05-05 17:23 25.13449 47.96302 31835 ft 438 kts 262°
2026-05-05 17:23 25.10551 47.69390 31910 ft 447 kts 261°
2026-05-05 17:24 25.03911 47.14431 31803 ft 448 kts 261°
2026-05-05 17:24 25.00587 46.87541 31795 ft 437 kts 261°
2026-05-05 17:24 24.98151 46.60941 31832 ft 444 kts 272°
2026-05-05 17:24 25.00665 46.33624 31956 ft 451 kts 272°
2026-05-05 17:25 25.02731 46.05990 31935 ft 453 kts 272°
2026-05-05 17:25 25.11788 45.52792 31925 ft 452 kts 292°
2026-05-05 17:26 25.33494 45.03374 32006 ft 452 kts 290°
2026-05-05 17:26 25.56831 44.53012 31874 ft 485 kts 307°
2026-05-05 17:26 25.76741 44.33399 31822 ft 464 kts 309°
2026-05-05 17:27 25.95341 44.13934 31818 ft 459 kts 308°
2026-05-05 17:27 26.13879 43.94653 31949 ft 467 kts 308°
2026-05-05 17:27 26.32362 43.74133 31834 ft 454 kts 296°
2026-05-05 17:27 26.45070 43.49975 31972 ft 459 kts 294°
2026-05-05 17:28 26.58412 43.25645 31931 ft 457 kts 294°
2026-05-05 17:28 26.84228 42.77979 31914 ft 440 kts 293°
2026-05-05 17:28 26.96930 42.54340 32043 ft 447 kts 293°
2026-05-05 17:29 27.09885 42.30108 32071 ft 455 kts 293°
2026-05-05 17:29 27.22776 42.05787 31943 ft 449 kts 293°
2026-05-05 17:29 27.35328 41.81972 31925 ft 439 kts 293°
2026-05-05 17:29 27.50131 41.59759 32040 ft 477 kts 310°
2026-05-05 17:30 27.69672 41.40240 31951 ft 462 kts 308°
2026-05-05 17:30 28.07653 41.00513 32111 ft 475 kts 309°
2026-05-05 17:31 28.46383 40.59744 31948 ft 465 kts 308°
2026-05-05 17:31 28.65565 40.39363 32116 ft 465 kts 308°
2026-05-05 17:32 29.03509 39.98772 31981 ft 464 kts 308°
2026-05-05 17:32 29.11747 39.75798 32091 ft 387 kts 261°
2026-05-05 17:32 29.11055 39.49685 32255 ft 430 kts 267°
2026-05-05 17:32 29.11146 39.21650 32106 ft 445 kts 266°
2026-05-05 17:33 29.11104 38.93560 31928 ft 436 kts 266°
2026-05-05 17:33 29.10986 38.66321 31891 ft 422 kts 266°
2026-05-05 17:33 29.10813 38.39534 32023 ft 422 kts 266°
2026-05-05 17:34 29.10259 37.85171 32021 ft 435 kts 266°
2026-05-05 17:34 29.09900 37.57746 31920 ft 426 kts 266°
2026-05-05 17:34 29.09658 37.30883 31931 ft 420 kts 267°
2026-05-05 17:34 29.09441 37.03945 32051 ft 427 kts 266°
2026-05-05 17:35 29.09153 36.76412 32092 ft 439 kts 267°
2026-05-05 17:35 29.08066 36.21217 31914 ft 428 kts 266°
2026-05-05 17:36 29.06418 35.67092 32101 ft 433 kts 266°
2026-05-05 17:36 29.04502 35.11391 31990 ft 436 kts 266°
2026-05-05 17:37 29.10032 34.58629 32042 ft 479 kts 318°
2026-05-05 17:37 29.26286 34.49805 32186 ft 476 kts 324°
2026-05-05 17:37 29.55417 34.27363 33640 ft 475 kts 320°
2026-05-05 17:37 29.74490 34.07436 34141 ft 463 kts 307°
2026-05-05 17:38 29.92347 33.86300 34120 ft 466 kts 309°
2026-05-05 17:38 30.10150 33.65404 33958 ft 447 kts 308°
2026-05-05 17:38 30.27171 33.45253 33982 ft 431 kts 308°
2026-05-05 17:38 30.43894 33.25342 34158 ft 434 kts 308°
2026-05-05 17:39 30.60932 33.04966 34188 ft 445 kts 308°
2026-05-05 17:39 30.95207 32.63657 34001 ft 434 kts 308°
2026-05-05 17:40 31.28193 32.23414 34135 ft 432 kts 307°
2026-05-05 17:40 31.57444 31.78479 34125 ft 441 kts 303°
2026-05-05 17:40 31.72114 31.55762 34014 ft 430 kts 303°
2026-05-05 17:41 31.86727 31.33950 33929 ft 434 kts 317°
2026-05-05 17:41 32.12049 31.31103 33997 ft 443 kts 345°
2026-05-05 17:41 32.36996 31.27820 34204 ft 463 kts 348°
2026-05-05 17:41 32.62504 31.23498 34069 ft 450 kts 330°
2026-05-05 17:42 32.84413 31.09933 34136 ft 458 kts 329°
2026-05-05 17:42 33.29043 30.81917 33974 ft 441 kts 326°
2026-05-05 17:43 33.71311 30.52512 34138 ft 444 kts 327°
2026-05-05 17:43 34.14557 30.22120 34026 ft 448 kts 327°
2026-05-05 17:43 34.35792 30.07061 33960 ft 436 kts 327°
2026-05-05 17:44 34.54570 29.89459 34028 ft 426 kts 311°
2026-05-05 17:44 34.70978 29.68719 34145 ft 439 kts 313°
2026-05-05 17:44 34.88260 29.47229 34115 ft 447 kts 313°
2026-05-05 17:44 35.06238 29.26613 33971 ft 441 kts 322°
2026-05-05 17:45 35.25813 29.09244 33936 ft 429 kts 321°
2026-05-05 17:45 35.44878 28.91626 34045 ft 431 kts 321°
2026-05-05 17:45 35.64235 28.73709 34118 ft 441 kts 321°
2026-05-05 17:46 36.03478 28.37026 33949 ft 436 kts 322°
2026-05-05 17:46 36.22301 28.19286 33924 ft 425 kts 322°
2026-05-05 17:46 36.40612 28.00995 34040 ft 427 kts 316°